SCP
0 -0 -0 0 -0 -0 -0 0 0 0 0 0 0 0 0 0 0 0 0 0 0 0
0 0 -0 -0 0 -0 0 0 0 0 0 0 0 0 0 0 0 0 0 0 0 0
0 0 0 0 0 0 -0 0 0 -0 0 0 0 0 0 -0 -0 0 0 0 0 0
0 0 0 0 0 0 0 0 0 0 0 0 0 0 0 0 0 0 0 0 0 0
0 0 0 0 0 0 0 0 0 0 0 0 0 0 0 0 0 0 0 0 0 0
0 0 0 0 0 0 0 0 0 0 0 0 0 0 0 0 0 0 0 0 0 0
0 0 0 0 0 0 0 0 0 0 0 0 0 0 0 0 0 0 0 0 0 0
0 0 0 0 0 0 0 0 0 0 0 0 0 0 0 0 0 0 0 0 0 0
0 0 0 0 0 0 0 0 0 0 0 0 0 0 0 0 0 0 0 0 0 0
0 0 0 0 0 0 0 0 0 0 0 0 0 0 0 0 0 0 0 0 0 0
0 0 0 0 0 0 0 0 0 0 0 0 0 0 0 0 0 0 0 0 0 0
0 0 0 0 0 0 0 0 0 0 0 0 0 0 0 0 0 0 0 0 0 0
0 0 0 0 0 0 0 0 0 0 0 0 0 0 0 0 0 0 0 0 0 0
0 0 0 0 0 0 0 0 0 0 0 0 0 0 0 0 0 0 0 0 0 0
Wind_Speed_500mb
38 40 42 42 46 52 58 66 83 84 80 70 73 88 84 85 80 81 75 78 70 74
41 44 39 39 47 50 52 74 81 80 80 72 73 77 81 82 66 71 66 64 70 90
43 49 44 42 44 53 57 87 83 74 71 66 66 75 82 74 69 74 83 85 94 89
44 48 48 48 50 57 63 73 84 78 80 75 76 76 77 78 81 86 89 95 96 90
39 43 51 54 55 61 73 69 70 75 81 87 93 90 93 96 97 98 102 103 102 102
38 43 46 52 58 63 71 80 80 79 85 92 92 95 101 104 107 108 107 104 104 108
37 41 44 47 53 57 61 70 75 79 83 87 95 101 104 107 110 113 115 115 119 120
35 40 46 51 55 59 64 65 68 74 81 89 95 103 107 113 120 123 123 124 127 128
23 36 42 46 50 57 66 73 73 76 78 83 91 98 105 113 120 123 125 126 125 128
10 18 23 33 47 53 62 63 73 78 83 89 93 95 96 96 104 109 116 122 124 124
11 14 19 26 32 38 51 58 63 74 85 90 96 96 100 103 99 98 105 110 117 122
25 24 25 24 25 32 41 50 57 62 72 70 91 100 106 103 105 109 110 109 104 107
36 37 34 31 30 32 35 42 47 51 60 70 80 92 105 107 102 109 112 109 112 118
29 31 35 39 38 35 32 34 41 45 45 49 61 74 95 103 104 103 102 103 108 116
Wind_Direction_500mb
211 218 235 227 217 217 218 212 214 213 214 216 216 216 219 231 230 218 211 229 224 223
217 217 221 230 229 223 219 210 209 211 211 218 214 220 224 225 215 218 217 232 238 237
223 220 221 225 228 230 213 207 211 216 219 221 223 222 224 216 212 221 228 230 236 240
230 230 227 225 224 222 220 218 222 224 222 227 232 233 233 232 230 232 231 235 240 242
241 236 232 232 228 226 224 225 232 238 239 236 233 233 233 233 235 237 238 240 241 243
248 245 242 237 236 237 236 242 247 247 245 242 240 240 238 238 240 243 244 245 246 248
258 259 257 254 249 247 245 245 248 249 248 247 246 246 244 244 245 247 249 251 252 253
268 273 269 263 261 259 259 259 257 253 252 250 249 247 249 249 250 251 252 253 254 255
239 242 256 272 278 273 268 265 264 263 262 258 255 255 252 249 250 252 255 257 257 257
231 242 250 254 253 255 266 275 274 273 269 267 267 267 268 265 256 255 256 258 260 261
330 292 265 255 257 259 256 255 256 264 272 274 276 276 275 273 268 261 260 263 262 262
349 338 327 309 282 267 263 264 265 266 265 265 271 277 278 274 267 262 263 263 264 265
344 340 334 327 316 310 300 288 283 278 271 267 266 267 269 268 264 262 265 268 263 257
345 341 338 337 333 328 323 316 312 308 300 288 273 259 258 260 263 259 256 256 256 256
Wind_Speed_850mb
38 40 42 42 46 52 58 66 83 84 80 70 73 88 84 85 80 81 75 78 70 74
41 44 39 39 47 50 52 74 81 80 80 72 73 77 81 82 66 71 66 64 70 90
43 49 44 42 44 53 57 87 83 74 71 66 66 75 82 74 69 74 83 85 94 89
44 48 48 48 50 57 63 73 84 78 80 75 76 76 77 78 81 86 89 95 96 90
39 43 51 54 55 61 73 69 70 75 81 87 93 90 93 96 97 98 102 103 102 102
38 43 46 52 58 63 71 80 80 79 85 92 92 95 101 104 107 108 107 104 104 108
37 41 44 47 53 57 61 70 75 79 83 87 95 101 104 107 110 113 115 115 119 120
35 40 46 51 55 59 64 65 68 74 81 89 95 103 107 113 120 123 123 124 127 128
23 36 42 46 50 57 66 73 73 76 78 83 91 98 105 113 120 123 125 126 125 128
10 18 23 33 47 53 62 63 73 78 83 89 93 95 96 96 104 109 116 122 124 124
11 14 19 26 32 38 51 58 63 74 85 90 96 96 100 103 99 98 105 110 117 122
25 24 25 24 25 32 41 50 57 62 72 70 91 100 106 103 105 109 110 109 104 107
36 37 34 31 30 32 35 42 47 51 60 70 80 92 105 107 102 109 112 109 112 118
29 31 35 39 38 35 32 34 41 45 45 49 61 74 95 103 104 103 102 103 108 116
Wind_Direction_850mb
211 218 235 227 217 217 218 212 214 213 214 216 216 216 219 231 230 218 211 229 224 223
217 217 221 230 229 223 219 210 209 211 211 218 214 220 224 225 215 218 217 232 238 237
223 220 221 225 228 230 213 207 211 216 219 221 223 222 224 216 212 221 228 230 236 240
230 230 227 225 224 222 220 218 222 224 222 227 232 233 233 232 230 232 231 235 240 242
241 236 232 232 228 226 224 225 232 238 239 236 233 233 233 233 235 237 238 240 241 243
248 245 242 237 236 237 236 242 247 247 245 242 240 240 238 238 240 243 244 245 246 248
258 259 257 254 249 247 245 245 248 249 248 247 246 246 244 244 245 247 249 251 252 253
268 273 269 263 261 259 259 259 257 253 252 250 249 247 249 249 250 251 252 253 254 255
239 242 256 272 278 273 268 265 264 263 262 258 255 255 252 249 250 252 255 257 257 257
231 242 250 254 253 255 266 275 274 273 269 267 267 267 268 265 256 255 256 258 260 261
330 292 265 255 257 259 256 255 256 264 272 274 276 276 275 273 268 261 260 263 262 262
349 338 327 309 282 267 263 264 265 266 265 265 271 277 278 274 267 262 263 263 264 265
344 340 334 327 316 310 300 288 283 278 271 267 266 267 269 268 264 262 265 268 263 257
345 341 338 337 333 328 323 316 312 308 300 288 273 259 258 260 263 259 256 256 256 256